Location: Unspecified
(0.0000°N, 0.0000°E)
Time: 15:12:46
(UTC+02:00)

PROBA 2 - Visible Passes

Search period start: 28 June 2016 00:00
Search period end: 08 July 2016 00:00
Orbit: 707 x 725 km, 98.3° (Epoch: 28 June)

Date Brightness Start Highest point End Pass type
(mag) Time Alt. Az. Time Alt. Az. Time Alt. Az.
28 Jun ? 20:21:39 10° N 20:26:32 87° W 20:31:24 10° SSW visible
29 Jun ? 21:09:42 10° NNW 21:13:20 21° WNW 21:17:00 10° SW visible
01 Jul ? 21:05:23 10° NNW 21:09:15 24° WNW 21:13:08 10° SW visible
03 Jul ? 21:01:05 10° NNW 21:05:09 27° WNW 21:09:14 10° SW visible
05 Jul ? 20:56:49 10° NNW 21:01:03 30° WNW 21:05:17 10° SW visible
07 Jul ? 20:52:34 10° NNW 20:56:58 34° WNW 21:01:19 10° SW visible
